Powrót do katalogu

CZ-6A DEB

AktywnySSO
NORAD 54615·DEBRIS·🇨🇳 China

Wystrzelony Nov 11, 2022 z Taiyuan Satellite Launch Center

Loading…

Następne Przeloty (najbliższe 24 godziny)

TLE

ŚwieżeSource: Space-Track

Epoka: Sep 14, 2026, 06:02 UTC

1 54615U 22151NR  26257.25186342  .00000570  00000-0  33807-3 0  9991
2 54615  98.8514 252.9139 0056836  70.7275 290.0032 14.10699027196703

Śledź CZ-6A DEB w czasie rzeczywistym z AllMySat

Download on the App Store